Terug naar catalogus

MOLNIYA 1-75

ActiefCommunicatieHEO
NORAD 19807·PAYLOAD·🇷🇺 Russia

Gelanceerd Feb 15, 1989 vanaf Baikonur Cosmodrome

Loading…

Volgende Passages (komende 24 uur)

TLE

VerouderendSource: Space-Track

Epoch: Aug 31, 2026, 00:09 UTC

1 19807U 89014A   26243.00667433 -.00000201  00000-0  00000-0 0  9997
2 19807  63.8050 131.3278 6870140 255.2837  24.9310  2.00550399274782

Volg MOLNIYA 1-75 in realtime met AllMySat

Download on the App Store